User: anonymous   Login
Location: Hastringsfeld
(50.9620°N, 10.4787°E)
Time: 11:54:06
(UTC+00:00)
Language:

Cosmos 1766 Rocket - Orbit

View from above orbital plane
View from above orbital plane
View from above satellite
View from above satellite

Ground track
Ground track

The orbit data is extracted from the following two-line orbital elements,

1 16882U 86055B   24056.87907900  .00000717  00000-0  82770-4 0  9999
2 16882  82.5188 104.1565 0017858 267.0492 266.1276 14.84206936  9125
Epoch (UTC): 25 February 2024 21:05:52
Eccentricity: 0.0017858
inclination: 82.5188°
perigee height: 603 km
apogee height: 628 km
right ascension of ascending node: 104.1565°
argument of perigee: 267.0492°
revolutions per day: 14.84206936
mean anomaly at epoch: 266.1276°
orbit number at epoch: 912

The dashed part of the orbit path shows where the satellite is in the earth's shadow,  

DLR